Location: Unspecified
(43.4680°N, 87.1740°E)
Time: 11:44:54
(UTC+00:00)

ALOS - Pass Details

Date: 17 April 2021
Orbit: 682 x 685 km, 97.9° (Epoch: 15 May)

Event Time Altitude Azimuth Distance (km) Brightness Sun altitude
Rises 21:45:54 0° 22° (NNE) 3,057 6.6 -17.0°
Reaches altitude 10° 21:48:22 10° 33° (NNE) 2,136 5.9 -16.6°
Maximum altitude 21:52:32 32° 96° (E) 1,176 4.0 -16.0°
Drops below altitude 10° 21:56:41 10° 159° (SSE) 2,120 4.7 -15.3°
Sets 21:59:07 0° 169° (S) 3,030 5.4 -15.0°
